This demonstration page uses our WeatherBlox Daily Observations layout. Learn more.

Left ArrowRight Arrow

36.17497, -115.13722

Hourly Observations for March 9, 2019

Temp ( °F °C ) Dew Point ( °F °C ) Humidity (%) Winds ( mph kmh ) Pressure ( in mb ) Visibility ( mi km ) Precip ( " mm )
12:53 am 00:53 Clear 43 6.1 27 -2.8 53 53 N 3 6 29.94 1014 10 16 0.00 0.00
1:53 am 01:53 Clear 42 5.6 27 -2.8 55 55 NNE 3 6 29.94 1014 10 16 0.00 0.00
2:53 am 02:53 Clear 41 5 27 -2.8 57 57 N 3 6 29.94 1014 10 16 0.00 0.00
3:53 am 03:53 Clear 40 4.4 28 -2.2 63 63 NNE 5 7 29.94 1014 10 16 0.00 0.00
4:53 am 04:53 Clear 39 3.9 27 -2.8 62 62 NNE 5 7 29.96 1015 10 16 0.00 0.00
5:53 am 05:53 Clear 39 3.9 26 -3.3 60 60 Calm 29.97 1015 10 16 0.00 0.00
6:53 am 06:53 Sunny 39 3.9 26 -3.3 60 60 NW 3 6 29.99 1016 10 16 0.00 0.00
7:53 am 07:53 Sunny 44 6.7 26 -3.3 49 49 E 3 6 30.00 1016 10 16 0.00 0.00
8:53 am 08:53 Sunny 47 8.3 25 -3.9 42 42 SSE 8 13 30.01 1016 10 16 0.00 0.00
9:53 am 09:53 Sunny 50 10 24 -4.4 36 36 ESE 9 15 30.01 1016 10 16 0.00 0.00
10:53 am 10:53 Sunny 52 11.1 24 -4.4 34 34 VRB 3 6 30.00 1016 10 16 0.00 0.00
11:53 am 11:53 Sunny 53 11.7 24 -4.4 32 32 SSE 12 19 29.98 1015 10 16 0.00 0.00
12:53 pm 12:53 Sunny 55 12.8 22 -5.6 28 28 VRB 3 6 29.94 1014 10 16 0.00 0.00
1:53 pm 13:53 Sunny 57 13.9 22 -5.6 26 26 ESE 9 15 29.91 1013 10 16 0.00 0.00
2:53 pm 14:53 Sunny 59 15 21 -6.1 23 23 ESE 12 19 29.89 1012 10 16 0.00 0.00
3:53 pm 15:53 Sunny 58 14.4 21 -6.1 24 24 ESE 13 20 29.88 1012 10 16 0.00 0.00
4:53 pm 16:53 Sunny 58 14.4 18 -7.8 21 21 ESE 7 11 29.87 1011 10 16 0.00 0.00
5:53 pm 17:53 Clear 57 13.9 18 -7.8 22 22 SSW 7 11 29.87 1012 10 16 0.00 0.00
6:53 pm 18:53 Mostly Cloudy 56 13.3 21 -6.1 26 26 SW 7 11 29.88 1012 10 16 0.00 0.00
7:53 pm 19:53 Mostly Cloudy 55 12.8 21 -6.1 26 26 SSW 7 11 29.88 1012 10 16 0.00 0.00
8:53 pm 20:53 Mostly Cloudy 54 12.2 20 -6.7 26 26 SW 12 19 29.88 1012 10 16 0.00 0.00
9:53 pm 21:53 Clear 54 12.2 21 -6.1 28 28 S 8 13 29.88 1012 10 16 0.00 0.00
10:53 pm 22:53 Clear 54 12.2 20 -6.7 26 26 S 9 15 29.86 1011 10 16 0.00 0.00
11:53 pm 23:53 Clear 53 11.7 21 -6.1 28 28 S 7 11 29.86 1011 10 16 0.00 0.00

Powered by AerisWeather